When you browse on this site, cookies collect data to enhance your experience and personalize the content and advertising you see.
Visit our Privacy Policy to learn more. By continuing to use the site, you agree to this use of cookies and data.
  • In France
  • List of Countries
  • For 7 days
  • Water Temperature
  • Weather Map
  • Weather Widgets
  • user-avatar
    Login

    Hourly Weather Berlin

    Today, 7 December, Saturday

    Time Temperature Precipitation Wind Pressure Humidity
    00:00 +3°C° 0.3 mm 6 mps 749 mmHg 84%
    01:00 +4°C° 0 mm 6 mps 749 mmHg 85%
    02:00 +4°C° 0.5 mm 6 mps 748 mmHg 84%
    03:00 +4°C° 0.5 mm 6 mps 748 mmHg 84%
    04:00 +5°C° 0.5 mm 6 mps 747 mmHg 83%
    05:00 +5°C° 0.2 mm 7 mps 748 mmHg 83%
    06:00 +5°C° 0.2 mm 7 mps 748 mmHg 84%
    07:00 +5°C° 0 mm 7 mps 748 mmHg 83%
    08:00 +6°C° 0.4 mm 7 mps 748 mmHg 83%
    09:00 +6°C° 0.4 mm 7 mps 749 mmHg 83%
    10:00 +6°C° 0.4 mm 8 mps 749 mmHg 83%
    11:00 +7°C° 0 mm 8 mps 750 mmHg 81%
    12:00 +8°C° 0 mm 7 mps 751 mmHg 80%
    13:00 +8°C° 0 mm 7 mps 751 mmHg 78%
    14:00 +8°C° 0.1 mm 7 mps 751 mmHg 79%
    15:00 +8°C° 0.1 mm 7 mps 751 mmHg 80%
    16:00 +7°C° 0.1 mm 6 mps 752 mmHg 81%
    17:00 +7°C° 0.1 mm 6 mps 752 mmHg 83%
    18:00 +7°C° 0.1 mm 6 mps 753 mmHg 84%
    19:00 +7°C° 0.1 mm 5 mps 754 mmHg 85%
    20:00 +7°C° 0.1 mm 5 mps 754 mmHg 84%
    21:00 +7°C° 0.1 mm 5 mps 754 mmHg 83%
    22:00 +7°C° 0.1 mm 6 mps 754 mmHg 83%
    23:00 +7°C° 0 mm 5 mps 754 mmHg 82%

    Tomorrow, 8 December, Sunday

    Time Temperature Precipitation Wind Pressure Humidity
    00:00 +7°C° 0 mm 5 mps 754 mmHg 82%
    01:00 +7°C° 0 mm 5 mps 754 mmHg 82%
    02:00 +6°C° 0 mm 5 mps 753 mmHg 82%
    03:00 +6°C° 0 mm 5 mps 753 mmHg 82%
    04:00 +5°C° 0 mm 5 mps 752 mmHg 83%
    05:00 +5°C° 0 mm 5 mps 752 mmHg 82%
    06:00 +5°C° 0 mm 5 mps 751 mmHg 81%
    07:00 +5°C° 0 mm 5 mps 751 mmHg 80%
    08:00 +5°C° 0 mm 6 mps 750 mmHg 79%
    09:00 +5°C° 0 mm 7 mps 749 mmHg 77%
    10:00 +6°C° 0 mm 7 mps 749 mmHg 76%
    11:00 +6°C° 0.2 mm 7 mps 748 mmHg 77%
    12:00 +7°C° 0.2 mm 8 mps 747 mmHg 77%
    13:00 +7°C° 0.2 mm 8 mps 746 mmHg 78%
    14:00 +8°C° 0.2 mm 7 mps 746 mmHg 79%
    15:00 +9°C° 0.2 mm 7 mps 745 mmHg 80%
    16:00 +9°C° 0.2 mm 7 mps 745 mmHg 81%
    17:00 +9°C° 0.1 mm 6 mps 745 mmHg 81%
    18:00 +9°C° 0.1 mm 6 mps 745 mmHg 80%
    19:00 +9°C° 0.1 mm 5 mps 745 mmHg 80%
    20:00 +8°C° 0 mm 5 mps 745 mmHg 78%
    21:00 +7°C° 0 mm 4 mps 745 mmHg 77%
    22:00 +6°C° 0 mm 4 mps 745 mmHg 75%
    23:00 +6°C° 0 mm 5 mps 744 mmHg 75%

    Day after tomorrow, 9 December, Monday

    Time Temperature Precipitation Wind Pressure Humidity
    00:00 +6°C° 0 mm 5 mps 744 mmHg 75%
    01:00 +5°C° 0 mm 6 mps 743 mmHg 76%
    02:00 +5°C° 0 mm 6 mps 743 mmHg 76%
    03:00 +5°C° 0 mm 6 mps 743 mmHg 76%
    04:00 +5°C° 0 mm 6 mps 743 mmHg 76%
    05:00 +4°C° 0 mm 6 mps 743 mmHg 76%
    06:00 +5°C° 0 mm 5 mps 743 mmHg 77%
    07:00 +5°C° 0 mm 5 mps 743 mmHg 77%
    08:00 +4°C° 0 mm 6 mps 743 mmHg 74%
    09:00 +5°C° 0 mm 7 mps 742 mmHg 72%
    10:00 +5°C° 0 mm 7 mps 742 mmHg 69%
    11:00 +5°C° 0 mm 7 mps 742 mmHg 68%
    12:00 +6°C° 0 mm 7 mps 742 mmHg 68%
    13:00 +6°C° 0 mm 7 mps 741 mmHg 67%
    14:00 +5°C° 0.1 mm 7 mps 741 mmHg 68%
    15:00 +5°C° 0.1 mm 6 mps 741 mmHg 69%
    16:00 +5°C° 0.1 mm 6 mps 740 mmHg 70%
    17:00 +4°C° 0 mm 7 mps 741 mmHg 73%
    18:00 +4°C° 0 mm 8 mps 741 mmHg 76%
    19:00 +3°C° 0 mm 9 mps 741 mmHg 79%
    20:00 +4°C° 0.6 mm 8 mps 742 mmHg 80%
    21:00 +4°C° 0.6 mm 8 mps 743 mmHg 82%
    22:00 +5°C° 0.6 mm 8 mps 744 mmHg 83%
    23:00 +4°C° 0.2 mm 8 mps 745 mmHg 77%

    10 December, Tuesday

    Time Temperature Precipitation Wind Pressure Humidity
    00:00 +4°C° 0.2 mm 8 mps 747 mmHg 70%
    01:00 +2°C° 0.2 mm 8 mps 748 mmHg 64%
    02:00 +1°C° 0 mm 8 mps 749 mmHg 67%
    03:00 +1°C° 0 mm 8 mps 750 mmHg 71%
    04:00 0°C° 0 mm 7 mps 752 mmHg 75%
    05:00 +2°C° 0.2 mm 7 mps 753 mmHg 73%
    06:00 +1°C° 0.2 mm 8 mps 754 mmHg 71%
    07:00 +1°C° 0.2 mm 8 mps 755 mmHg 70%
    08:00 +2°C° 0 mm 7 mps 757 mmHg 70%
    09:00 +1°C° 0 mm 6 mps 758 mmHg 70%
    10:00 +1°C° 0 mm 6 mps 759 mmHg 70%
    11:00 +2°C° 0 mm 5 mps 760 mmHg 67%
    12:00 +2°C° 0 mm 5 mps 761 mmHg 64%
    13:00 +4°C° 0 mm 4 mps 762 mmHg 60%
    14:00 +3°C° 0 mm 3 mps 762 mmHg 64%
    15:00 +3°C° 0 mm 2 mps 762 mmHg 68%
    16:00 +2°C° 0 mm 2 mps 763 mmHg 72%
    17:00 +2°C° 0 mm 2 mps 763 mmHg 74%
    18:00 +1°C° 0 mm 2 mps 763 mmHg 77%
    19:00 +1°C° 0 mm 2 mps 763 mmHg 79%
    20:00 +1°C° 0 mm 2 mps 763 mmHg 82%
    21:00 +1°C° 0 mm 2 mps 762 mmHg 85%
    22:00 0°C° 0 mm 3 mps 762 mmHg 87%
    23:00 0°C° 0 mm 3 mps 761 mmHg 85%

    11 December, Wednesday

    Time Temperature Precipitation Wind Pressure Humidity
    00:00 -1°C° 0 mm 4 mps 761 mmHg 84%
    01:00 -1°C° 0 mm 4 mps 760 mmHg 82%
    02:00 -1°C° 0 mm 5 mps 759 mmHg 79%
    03:00 -1°C° 0 mm 5 mps 759 mmHg 76%
    04:00 -2°C° 0 mm 6 mps 758 mmHg 73%
    05:00 -2°C° 0 mm 6 mps 757 mmHg 72%
    06:00 -2°C° 0 mm 6 mps 757 mmHg 70%
    07:00 -1°C° 0 mm 6 mps 756 mmHg 69%
    08:00 0°C° 0.1 mm 5 mps 756 mmHg 70%
    09:00 0°C° 0.1 mm 5 mps 756 mmHg 72%
    10:00 0°C° 0.1 mm 5 mps 756 mmHg 73%
    11:00 0°C° 0.7 mm 5 mps 756 mmHg 79%
    12:00 0°C° 0.7 mm 4 mps 755 mmHg 85%
    13:00 0°C° 0.7 mm 4 mps 755 mmHg 90%
    14:00 +1°C° 0.8 mm 3 mps 755 mmHg 91%
    15:00 +1°C° 0.8 mm 3 mps 755 mmHg 93%
    16:00 +1°C° 0.8 mm 3 mps 755 mmHg 94%
    17:00 +2°C° 0.6 mm 2 mps 754 mmHg 95%
    18:00 +2°C° 0.6 mm 2 mps 754 mmHg 95%
    19:00 +2°C° 0.6 mm 2 mps 754 mmHg 96%
    20:00 +2°C° 0.3 mm 2 mps 754 mmHg 96%
    21:00 +3°C° 0.3 mm 2 mps 754 mmHg 96%
    22:00 +3°C° 0.3 mm 2 mps 753 mmHg 96%
    23:00 +3°C° 0.2 mm 2 mps 753 mmHg 96%

    12 December, Thursday

    Time Temperature Precipitation Wind Pressure Humidity
    00:00 +3°C° 0.2 mm 2 mps 753 mmHg 96%
    01:00 +3°C° 0.2 mm 2 mps 752 mmHg 96%
    02:00 +3°C° 0.1 mm 2 mps 752 mmHg 95%
    03:00 +3°C° 0.1 mm 2 mps 752 mmHg 95%
    04:00 +3°C° 0.1 mm 2 mps 752 mmHg 95%
    05:00 +3°C° 0 mm 2 mps 752 mmHg 95%
    06:00 +3°C° 0 mm 2 mps 752 mmHg 94%
    07:00 +2°C° 0 mm 2 mps 752 mmHg 94%
    08:00 +1°C° 0 mm 3 mps 752 mmHg 92%
    09:00 +1°C° 0 mm 3 mps 752 mmHg 90%
    10:00 +2°C° 0 mm 3 mps 752 mmHg 87%
    11:00 +2°C° 0 mm 3 mps 752 mmHg 85%
    12:00 +3°C° 0 mm 3 mps 752 mmHg 83%
    13:00 +3°C° 0 mm 4 mps 752 mmHg 80%
    14:00 +3°C° 0 mm 3 mps 752 mmHg 82%
    15:00 +3°C° 0 mm 3 mps 752 mmHg 84%
    16:00 +3°C° 0 mm 3 mps 752 mmHg 85%
    17:00 +2°C° 0 mm 3 mps 752 mmHg 86%
    18:00 +2°C° 0 mm 3 mps 752 mmHg 86%
    19:00 +1°C° 0 mm 3 mps 752 mmHg 87%
    20:00 +1°C° 0 mm 3 mps 751 mmHg 86%
    21:00 0°C° 0 mm 3 mps 751 mmHg 85%
    22:00 -1°C° 0 mm 4 mps 750 mmHg 84%
    23:00 -1°C° 0 mm 4 mps 750 mmHg 84%
    Show more